Date String (YYYY-MM-DD hh:mm:ss) UTC,Instrument flags,Ambient pressure (hPa),Sample flow (lpm),Bypass flow (lpm),Sample temperature (°C),Ambient temperature (°C),ASC tube jacket temperature (°C),LED temperature (°C),Box temperature (°C),Sample RH (%),Span deviation,Mass concentration (μg/m³),Mass concentration (μg/m³),Mass concentration (μg/m³)
DateTimeUTC,F1_M11,P_M11,Q1_M11,Q2_M11,T1_M11,T2_M11,T3_M11,T4_M11,T5_M11,U1_M11,ZSPAN_M11,X0_M11,X2_M11,X1_M11
2021-10-14 11:00:00,,0822.0,4.99,0.00,23.7,22.8,00.0,32.9,25.5,15.1,0000.0,0009.37,0003.33,0002.38
2021-10-14 11:01:00,,0822.1,5.00,0.00,23.7,22.7,00.0,32.9,25.5,15.2,0000.0,0009.41,0003.32,0002.39
2021-10-14 11:02:00,,0822.1,5.00,0.00,23.7,22.7,00.0,32.9,25.5,15.2,0000.0,0010.09,0003.35,0002.40
2021-10-14 11:03:00,,0822.1,5.00,0.00,23.7,22.7,00.0,32.9,25.5,15.2,0000.0,0009.77,0003.34,0002.41
2021-10-14 11:04:00,,0822.1,4.98,0.00,23.7,22.7,00.0,32.8,25.5,15.2,0000.0,0010.10,0003.36,0002.42
2021-10-14 11:05:00,,0822.1,5.00,0.00,23.7,22.7,00.0,32.8,25.5,15.2,0000.0,0010.38,0003.38,0002.40
2021-10-14 11:06:00,,0822.1,5.00,0.00,23.7,22.7,00.0,32.8,25.5,15.2,0000.0,0010.41,0003.40,0002.42
2021-10-14 11:07:00,,0822.1,5.01,0.00,23.7,22.7,00.0,32.8,25.5,15.2,0000.0,0010.94,0003.41,0002.42
2021-10-14 11:08:00,,0822.1,4.99,0.00,23.7,22.7,00.0,32.8,25.5,15.1,0000.0,0010.87,0003.42,0002.43
2021-10-14 11:09:00,,0822.1,5.01,0.00,23.7,22.7,00.0,32.8,25.5,15.1,0000.0,0010.88,0003.44,0002.44
2021-10-14 11:10:00,,0822.1,5.00,0.00,23.7,22.7,00.0,32.8,25.5,15.1,0000.0,0010.79,0003.48,0002.45
2021-10-14 11:11:00,,0822.1,5.00,0.00,23.7,22.7,00.0,32.8,25.5,15.1,0000.0,0010.02,0003.48,0002.46
2021-10-14 11:12:00,,0822.2,5.01,0.00,23.7,22.7,00.0,32.8,25.4,15.1,0000.0,0009.90,0003.49,0002.48
2021-10-14 11:13:00,,0822.2,4.99,0.00,23.7,22.7,00.0,32.8,25.4,15.0,0000.0,0009.27,0003.50,0002.49
2021-10-14 11:14:00,,0822.2,5.00,0.00,23.7,22.7,00.0,32.8,25.4,15.0,0000.0,0009.18,0003.46,0002.49
2021-10-14 11:15:00,,0822.2,5.01,0.00,23.7,22.7,00.0,32.8,25.4,15.1,0000.0,0008.98,0003.49,0002.51
2021-10-14 11:16:00,,0822.2,5.00,0.00,23.7,22.7,00.0,32.8,25.5,15.1,0000.0,0008.47,0003.47,0002.54
2021-10-14 11:17:00,,0822.2,5.00,0.00,23.7,22.7,00.0,32.8,25.4,15.0,0000.0,0008.67,0003.43,0002.54
2021-10-14 11:18:00,,0822.2,5.00,0.00,23.6,22.7,00.0,32.8,25.4,15.1,0000.0,0008.33,0003.42,0002.55
2021-10-14 11:19:00,,0822.2,5.00,0.00,23.6,22.6,00.0,32.8,25.4,15.1,0000.0,0008.01,0003.40,0002.57
2021-10-14 11:20:00,,0822.2,4.99,0.00,23.6,22.6,00.0,32.8,25.4,15.2,0000.0,0007.87,0003.36,0002.57
2021-10-14 11:21:00,,0822.2,5.00,0.00,23.6,22.6,00.0,32.8,25.4,15.2,0000.0,0007.94,0003.35,0002.56
2021-10-14 11:22:00,,0822.2,5.00,0.00,23.6,22.6,00.0,32.8,25.4,15.1,0000.0,0008.09,0003.38,0002.56
2021-10-14 11:23:00,,0822.2,4.98,0.00,23.6,22.6,00.0,32.8,25.4,15.2,0000.0,0008.10,0003.40,0002.55
2021-10-14 11:24:00,,0822.2,5.01,0.00,23.6,22.6,00.0,32.8,25.4,15.2,0000.0,0008.10,0003.39,0002.55
2021-10-14 11:25:00,,0822.2,5.01,0.00,23.6,22.6,00.0,32.8,25.4,15.3,0000.0,0007.71,0003.38,0002.55
2021-10-14 11:26:00,,0822.3,4.99,0.00,23.6,22.7,00.0,32.8,25.5,15.3,0000.0,0007.82,0003.38,0002.54
2021-10-14 11:27:00,,0822.4,5.00,0.00,23.6,22.7,00.0,32.8,25.5,15.3,0000.0,0007.90,0003.36,0002.53
2021-10-14 11:28:00,,0822.3,5.00,0.00,23.6,22.7,00.0,32.8,25.5,15.2,0000.0,0007.55,0003.37,0002.53
2021-10-14 11:29:00,,0822.3,5.00,0.00,23.6,22.6,00.0,32.7,25.4,15.2,0000.0,0007.42,0003.37,0002.53
2021-10-14 11:30:00,,0822.3,4.99,0.00,23.6,22.6,00.0,32.7,25.4,15.3,0000.0,0007.57,0003.39,0002.51
2021-10-14 11:31:00,,0822.3,5.00,0.00,23.6,22.6,00.0,32.7,25.4,15.3,0000.0,0007.69,0003.41,0002.48
2021-10-14 11:32:00,,0822.3,5.00,0.00,23.6,22.6,00.0,32.7,25.4,15.3,0000.0,0008.67,0003.40,0002.48
2021-10-14 11:33:00,,0822.3,5.00,0.00,23.6,22.6,00.0,32.7,25.4,15.3,0000.0,0008.59,0003.34,0002.47
2021-10-14 11:34:00,,0822.4,5.00,0.00,23.6,22.6,00.0,32.7,25.4,15.3,0000.0,0008.54,0003.34,0002.46
2021-10-14 11:35:00,,0822.4,5.00,0.00,23.6,22.6,00.0,32.7,25.4,15.3,0000.0,0008.60,0003.33,0002.44
2021-10-14 11:36:00,,0822.4,5.01,0.00,23.6,22.6,00.0,32.7,25.4,15.3,0000.0,0008.75,0003.38,0002.44
2021-10-14 11:37:00,,0822.4,5.01,0.00,23.6,22.6,00.0,32.7,25.4,15.3,0000.0,0008.77,0003.39,0002.44
2021-10-14 11:38:00,,0822.4,4.99,0.00,23.6,22.6,00.0,32.7,25.4,15.3,0000.0,0008.58,0003.38,0002.44
2021-10-14 11:39:00,,0822.3,5.02,0.00,23.6,22.6,00.0,32.7,25.4,15.3,0000.0,0008.59,0003.35,0002.43
2021-10-14 11:40:00,,0822.4,5.00,0.00,23.6,22.6,00.0,32.7,25.4,15.3,0000.0,0008.69,0003.37,0002.42
2021-10-14 11:41:00,,0822.4,5.00,0.00,23.6,22.6,00.0,32.7,25.4,15.3,0000.0,0008.57,0003.35,0002.43
2021-10-14 11:42:00,,0822.4,4.99,0.00,23.6,22.6,00.0,32.7,25.4,15.3,0000.0,0008.80,0003.34,0002.44
2021-10-14 11:43:00,,0822.4,5.00,0.00,23.6,22.6,00.0,32.7,25.4,15.3,0000.0,0008.13,0003.32,0002.43
2021-10-14 11:44:00,,0822.4,5.00,0.00,23.6,22.6,00.0,32.7,25.4,15.3,0000.0,0007.57,0003.35,0002.43
2021-10-14 11:45:00,,0822.4,5.01,0.00,23.6,22.6,00.0,32.7,25.4,15.3,0000.0,0007.54,0003.37,0002.44
2021-10-14 11:46:00,,0822.4,5.00,0.00,23.6,22.7,00.0,32.7,25.4,15.3,0000.0,0007.77,0003.36,0002.45
2021-10-14 11:47:00,,0822.4,5.01,0.00,23.6,22.7,00.0,32.7,25.4,15.2,0000.0,0007.53,0003.30,0002.44
2021-10-14 11:48:00,,0822.4,4.99,0.00,23.6,22.7,00.0,32.7,25.4,15.2,0000.0,0007.53,0003.30,0002.43
2021-10-14 11:49:00,,0822.4,4.99,0.00,23.6,22.6,00.0,32.7,25.4,15.1,0000.0,0007.56,0003.31,0002.44
2021-10-14 11:50:00,,0822.4,5.01,0.00,23.6,22.6,00.0,32.7,25.4,15.1,0000.0,0007.71,0003.33,0002.44
2021-10-14 11:51:00,,0822.4,4.99,0.00,23.6,22.6,00.0,32.7,25.4,15.1,0000.0,0008.00,0003.33,0002.44
2021-10-14 11:52:00,,0822.4,5.01,0.00,23.6,22.6,00.0,32.7,25.4,15.2,0000.0,0008.00,0003.33,0002.44
2021-10-14 11:53:00,,0822.3,5.00,0.00,23.6,22.7,00.0,32.7,25.4,15.3,0000.0,0007.78,0003.34,0002.44
2021-10-14 11:54:00,,0822.3,5.00,0.00,23.6,22.7,00.0,32.7,25.4,15.3,0000.0,0007.64,0003.35,0002.46
2021-10-14 11:55:00,,0822.4,5.00,0.00,23.6,22.7,00.0,32.7,25.4,15.4,0000.0,0007.75,0003.35,0002.48
2021-10-14 11:56:00,,0822.4,5.00,0.00,23.6,22.6,00.0,32.7,25.4,15.4,0000.0,0008.28,0003.40,0002.49
2021-10-14 11:57:00,,0822.4,4.99,0.00,23.6,22.6,00.0,32.7,25.4,15.4,0000.0,0008.84,0003.44,0002.49
2021-10-14 11:58:00,,0822.4,5.00,0.00,23.6,22.6,00.0,32.7,25.4,15.4,0000.0,0009.06,0003.48,0002.51
2021-10-14 11:59:00,,0822.4,4.99,0.00,23.6,22.6,00.0,32.7,25.4,15.5,0000.0,0010.24,0003.54,0002.54
